NJ3J Weather Reports


time (UTC)temp
C
wind
direction
speed
KPH
gust
KPH
rain 1hr
cm
rain 24hr
cm
rain mn
cm
humidity
%
barometer
mb
20260904131516 26 255 3.2 8.0 0.00 0.00 0.00 87 1016.3
20260904131036 25 222 3.2 8.0 0.00 0.00 0.00 89 1016.3
20260904130516 25 216 3.2 11.3 0.00 0.00 0.00 91 1016.2
20260904130116 25 294 3.2 6.4 0.00 0.00 0.00 93 1016.2
20260904125517 25 312 1.6 6.4 0.00 0.00 0.00 94 1016.2
20260904125017 24 288 3.2 8.0 0.00 0.00 0.00 95 1016.2
20260904124517 24 211 1.6 6.4 0.00 0.00 0.00 96 1016.1
20260904124057 23 223 1.6 4.8 0.00 0.00 0.00 97 1016.1
20260904123537 23 201 1.6 11.3 0.00 0.00 0.00 97 1016.1
20260904123016 23 210 1.6 6.4 0.00 0.00 0.00 97 1016.0
20260904122517 23 181 1.6 6.4 0.00 0.00 0.00 98 1016.0
20260904122017 23 192 1.6 9.7 0.00 0.00 0.00 98 1015.9
20260904121517 23 203 1.6 3.2 0.00 0.00 0.00 98 1015.9
20260904121017 23 155 1.6 6.4 0.00 0.00 0.00 98 1015.8
20260904120517 23 151 3.2 6.4 0.00 0.00 0.00 99 1015.8
20260904120017 22 152 3.2 6.4 0.00 0.00 0.00 99 1015.8
20260904115517 22 176 3.2 8.0 0.00 0.00 0.00 98 1015.7
20260904115017 22 235 1.6 4.8 0.00 0.00 0.00 98 1015.6
20260904114517 22 190 1.6 6.4 0.00 0.00 0.00 98 1015.6
20260904114018 22 151 1.6 4.8 0.00 0.00 0.00 98 1015.6
20260904113517 22 163 1.6 4.8 0.00 0.00 0.00 98 1015.6
20260904113018 22 157 1.6 6.4 0.00 0.00 0.00 98 1015.5
20260904112558 22 58 1.6 3.2 0.00 0.00 0.00 98 1015.4
20260904112018 22 106 1.6 3.2 0.00 0.00 0.00 98 1015.4
20260904111518 22 98 1.6 4.8 0.00 0.00 0.00 98 1015.4
20260904111018 22 158 1.6 4.8 0.00 0.00 0.00 98 1015.4
20260904110518 23 227 1.6 3.2 0.00 0.00 0.00 98 1015.3
20260904110015 23 230 1.6 6.4 0.00 0.00 0.00 98 1015.3
20260904105518 23 248 1.6 4.8 0.00 0.00 0.00 98 1015.3
20260904105015 23 196 1.6 4.8 0.00 0.00 0.00 98 1015.2
20260904104516 23 154 1.6 4.8 0.00 0.00 0.00 98 1015.2
20260904104016 23 141 1.6 4.8 0.00 0.00 0.00 98 1015.2
20260904103516 23 118 1.6 4.8 0.00 0.00 0.00 98 1015.2
20260904103017 23 164 1.6 3.2 0.00 0.00 0.00 98 1015.2
20260904102517 23 173 1.6 4.8 0.00 0.00 0.00 98 1015.2
20260904102017 23 177 1.6 6.4 0.00 0.00 0.00 98 1015.2
20260904101517 23 167 1.6 4.8 0.00 0.00 0.00 98 1015.2
20260904101017 23 120 1.6 4.8 0.00 0.00 0.00 98 1015.2
20260904100517 23 150 1.6 6.4 0.00 0.00 0.00 98 1015.1
20260904100017 23 151 1.6 4.8 0.00 0.00 0.00 98 1015.1
20260904095517 23 13 0.0 3.2 0.00 0.00 0.00 98 1015.0
20260904095017 23 188 1.6 4.8 0.00 0.00 0.00 98 1015.0
20260904094517 23 143 1.6 4.8 0.00 0.00 0.00 98 1015.0
20260904094017 23 151 1.6 4.8 0.00 0.00 0.00 98 1014.9
20260904093517 23 150 1.6 4.8 0.00 0.00 0.00 98 1014.8
20260904093017 23 122 1.6 4.8 0.00 0.00 0.00 98 1014.8
20260904092518 23 168 1.6 3.2 0.00 0.00 0.00 98 1014.7
20260904092018 23 166 1.6 3.2 0.00 0.00 0.00 98 1014.7
20260904091518 23 138 1.6 3.2 0.00 0.00 0.00 98 1014.7
20260904091017 23 169 1.6 4.8 0.00 0.00 0.00 98 1014.7
20260904090538 23 157 1.6 11.3 0.00 0.00 0.00 98 1014.7
20260904090018 23 318 1.6 3.2 0.00 0.00 0.00 98 1014.7
20260904085518 23 66 1.6 3.2 0.00 0.00 0.00 97 1014.7
20260904085018 23 290 1.6 3.2 0.00 0.00 0.00 97 1014.7
20260904084518 23 332 1.6 4.8 0.00 0.00 0.00 97 1014.6
20260904084018 23 302 0.0 3.2 0.00 0.00 0.00 97 1014.5
20260904083558 23 154 1.6 4.8 0.00 0.00 0.00 97 1014.5
20260904083015 23 243 1.6 4.8 0.00 0.00 0.00 97 1014.5
20260904082536 23 192 1.6 4.8 0.00 0.00 0.00 97 1014.5
20260904082016 23 168 1.6 4.8 0.00 0.00 0.00 97 1014.5
20260904081516 23 199 1.6 3.2 0.00 0.00 0.00 97 1014.5
20260904081015 23 183 0.0 3.2 0.00 0.00 0.00 97 1014.5
20260904080516 23 212 1.6 3.2 0.00 0.00 0.00 97 1014.6
20260904080015 23 169 1.6 4.8 0.00 0.00 0.00 96 1014.6
20260904075536 23 166 0.0 3.2 0.00 0.00 0.00 96 1014.6
20260904075036 23 228 0.0 1.6 0.00 0.00 0.00 96 1014.6
20260904074516 23 154 1.6 3.2 0.00 0.00 0.00 96 1014.5
20260904074036 23 171 1.6 4.8 0.00 0.00 0.00 97 1014.5
20260904073517 23 183 1.6 4.8 0.00 0.00 0.00 97 1014.6
20260904073016 23 191 1.6 3.2 0.00 0.00 0.00 97 1014.6
20260904072517 23 188 1.6 3.2 0.00 0.00 0.00 97 1014.7
20260904072017 23 165 1.6 8.0 0.00 0.00 0.00 96 1014.7
20260904071517 23 196 1.6 6.4 0.00 0.00 0.00 96 1014.7
20260904071017 23 243 1.6 3.2 0.00 0.00 0.00 96 1014.6
20260904070517 23 15 0.0 3.2 0.00 0.00 0.00 96 1014.6
20260904070017 23 98 1.6 3.2 0.00 0.00 0.00 96 1014.6
20260904065516 23 60 1.6 1.6 0.00 0.00 0.00 96 1014.6
20260904065017 23 329 1.6 1.6 0.00 0.00 0.00 96 1014.6
20260904064517 24 316 1.6 1.6 0.00 0.00 0.00 95 1014.6
20260904064038 24 314 1.6 1.6 0.00 0.00 0.00 95 1014.6
20260904063558 24 317 1.6 1.6 0.00 0.00 0.00 95 1014.6
20260904063018 24 317 1.6 1.6 0.00 0.00 0.00 95 1014.6
20260904062518 24 316 1.6 1.6 0.00 0.00 0.00 94 1014.6
20260904062018 24 317 1.6 1.6 0.00 0.00 0.00 94 1014.7
20260904061518 24 178 1.6 1.6 0.00 0.00 0.00 94 1014.7
20260904061038 24 140 1.6 1.6 0.00 0.00 0.00 94 1014.7
20260904060518 24 139 1.6 1.6 0.00 0.00 0.00 93 1014.7
20260904060018 24 140 1.6 1.6 0.00 0.00 0.00 93 1014.7
20260904055518 24 136 1.6 1.6 0.00 0.00 0.00 94 1014.7
20260904055018 24 125 1.6 1.6 0.00 0.00 0.00 94 1014.7
20260904054518 24 60 1.6 1.6 0.00 0.00 0.00 94 1014.8
20260904054015 24 317 1.6 1.6 0.00 0.00 0.00 93 1014.8
20260904053516 25 317 1.6 1.6 0.00 0.00 0.00 93 1014.8
20260904053016 25 318 0.0 1.6 0.00 0.00 0.00 93 1014.8
20260904052556 25 315 1.6 1.6 0.00 0.00 0.00 92 1014.9
20260904052016 25 316 0.0 1.6 0.00 0.00 0.00 92 1014.9
20260904051516 25 318 0.0 1.6 0.00 0.00 0.00 92 1014.9
20260904051016 25 315 0.0 1.6 0.00 0.00 0.00 92 1015.0
20260904050516 25 319 0.0 1.6 0.00 0.00 0.00 92 1015.0
20260904050016 25 321 0.0 1.6 0.00 0.00 0.00 91 1015.1
20260904045536 25 122 1.6 4.8 0.00 0.00 0.00 91 1015.0
20260904045017 25 138 1.6 6.4 0.00 0.00 0.00 90 1015.0
20260904044516 25 138 3.2 6.4 0.00 0.00 0.00 90 1015.1
20260904044016 25 160 1.6 6.4 0.00 0.00 0.00 90 1015.1
20260904043517 25 152 1.6 8.0 0.00 0.00 0.00 89 1015.1
20260904043016 25 146 3.2 6.4 0.00 0.00 0.00 90 1015.1
20260904042517 25 139 1.6 6.4 0.00 0.00 0.00 90 1015.2
20260904042017 25 308 1.6 6.4 0.00 0.00 0.00 90 1015.2
20260904041517 25 314 1.6 6.4 0.00 0.00 0.00 90 1015.1
20260904041017 25 315 1.6 6.4 0.00 0.00 0.00 89 1015.2
20260904040517 25 316 1.6 4.8 0.00 0.00 0.00 89 1015.2
20260904040037 25 313 1.6 8.0 0.00 0.00 0.00 89 1015.2
20260904035537 25 316 1.6 9.7 0.00 0.00 0.00 89 1015.2
20260904035017 25 310 1.6 6.4 0.00 0.00 0.00 89 1015.3
20260904034517 25 312 1.6 4.8 0.00 0.00 0.00 89 1015.2
20260904034018 25 316 1.6 4.8 0.00 0.00 0.00 89 1015.2
20260904033518 26 302 3.2 8.0 0.00 0.00 0.00 89 1015.2
20260904033017 26 263 1.6 4.8 0.00 0.00 0.00 89 1015.1
20260904032517 26 239 1.6 6.4 0.00 0.00 0.00 89 1015.1
20260904032018 26 146 3.2 6.4 0.00 0.00 0.00 88 1015.1
20260904031518 26 175 3.2 8.0 0.00 0.00 0.00 88 1015.1
20260904031018 26 201 3.2 8.0 0.00 0.00 0.00 87 1015.1
20260904030518 26 157 3.2 8.0 0.00 0.00 0.00 87 1015.2
20260904030018 26 176 3.2 8.0 0.00 0.00 0.00 87 1015.2
20260904025538 26 252 1.6 6.4 0.00 0.00 0.00 86 1015.1
20260904025018 26 318 1.6 1.6 0.00 0.00 0.00 86 1015.1
20260904024519 26 299 1.6 3.2 0.00 0.00 0.00 86 1015.2
20260904024015 26 269 1.6 4.8 0.00 0.00 0.00 85 1015.2
20260904023536 27 280 1.6 4.8 0.00 0.00 0.00 85 1015.2
20260904023016 27 177 3.2 8.0 0.00 0.00 0.00 84 1015.2
20260904022516 27 215 4.8 9.7 0.00 0.00 0.00 83 1015.2
20260904022016 27 228 3.2 8.0 0.00 0.00 0.00 82 1015.1
20260904021516 27 171 1.6 6.4 0.00 0.00 0.00 81 1015.1
20260904021036 27 151 1.6 6.4 0.00 0.00 0.00 81 1015.0
20260904020516 27 163 1.6 6.4 0.00 0.00 0.00 81 1015.0
20260904020015 27 298 3.2 6.4 0.00 0.00 0.00 81 1015.0
20260904015516 27 314 3.2 6.4 0.00 0.00 0.00 80 1014.9
20260904015016 27 314 1.6 4.8 0.00 0.00 0.00 80 1014.9
20260904014516 27 316 1.6 4.8 0.00 0.00 0.00 80 1014.7
20260904014016 27 315 1.6 3.2 0.00 0.00 0.00 79 1014.7
20260904013516 28 316 1.6 4.8 0.00 0.00 0.00 79 1014.6
20260904013016 28 316 0.0 1.6 0.00 0.00 0.00 79 1014.6
20260904012517 28 316 1.6 3.2 0.00 0.00 0.00 78 1014.6
20260904012017 28 311 1.6 4.8 0.00 0.00 0.00 76 1014.6
20260904011557 28 314 1.6 4.8 0.00 0.00 0.00 75 1014.5
20260904011017 28 315 1.6 1.6 0.00 0.00 0.00 74 1014.6
20260904010517 29 316 0.0 1.6 0.00 0.00 0.00 74 1014.5
20260904010017 30 316 1.6 1.6 0.00 0.00 0.00 73 1014.4
20260904005517 30 305 3.2 8.0 0.00 0.00 0.00 72 1014.4
20260904005018 30 299 3.2 8.0 0.00 0.00 0.00 71 1014.4
20260904004517 30 310 1.6 6.4 0.00 0.00 0.00 69 1014.3
20260904004017 31 315 1.6 4.8 0.00 0.00 0.00 66 1014.3
20260904003517 31 317 1.6 6.4 0.00 0.00 0.00 66 1014.4
20260904003037 31 299 3.2 8.0 0.00 0.00 0.00 64 1014.3
20260904002517 32 284 3.2 8.0 0.00 0.00 0.00 63 1014.3
20260904002018 32 171 1.6 6.4 0.00 0.00 0.00 62 1014.3
20260904001518 33 281 1.6 4.8 0.00 0.00 0.00 60 1014.3
20260904001018 33 290 1.6 4.8 0.00 0.00 0.00 58 1014.3
20260904000518 33 271 1.6 4.8 0.00 0.00 0.00 57 1014.3
20260904000018 34 250 0.0 1.6 0.00 0.00 0.00 55 1014.2
20260903235518 35 258 0.0 1.6 0.00 0.00 0.00 53 1014.1
20260903235018 35 287 0.0 1.6 0.00 0.00 0.00 52 1014.1
20260903234518 36 263 0.0 3.2 0.00 0.00 0.00 51 1014.1
20260903234018 36 263 0.0 1.6 0.00 0.00 0.00 50 1014.1
20260903233518 36 262 0.0 1.6 0.00 0.00 0.00 49 1014.0
20260903233036 36 228 0.0 4.8 0.00 0.00 0.00 48 1013.9
20260903232516 36 247 0.0 3.2 0.00 0.00 0.00 48 1014.0
20260903232015 36 261 0.0 4.8 0.00 0.00 0.00 49 1013.9
20260903231538 36 249 0.0 1.6 0.00 0.00 0.00 50 1013.9
20260903231015 36 193 1.6 9.7 0.00 0.00 0.00 49 1013.9
20260903230516 36 201 1.6 4.8 0.00 0.00 0.00 48 1013.8
20260903230016 36 197 3.2 6.4 0.00 0.00 0.00 48 1013.7
20260903225516 36 185 1.6 6.4 0.00 0.00 0.00 46 1013.7
20260903225016 37 199 1.6 6.4 0.00 0.00 0.00 47 1013.7
20260903224556 37 188 1.6 11.3 0.00 0.00 0.00 46 1013.6
20260903224016 37 217 0.0 3.2 0.00 0.00 0.00 45 1013.7
20260903223516 36 224 1.6 3.2 0.00 0.00 0.00 46 1013.8
20260903223016 36 204 0.0 4.8 0.00 0.00 0.00 47 1013.8
20260903222516 36 192 3.2 8.0 0.00 0.00 0.00 47 1013.8
20260903222017 37 181 3.2 11.3 0.00 0.00 0.00 46 1013.8
20260903221517 37 193 3.2 9.7 0.00 0.00 0.00 45 1013.7
20260903221017 37 192 1.6 4.8 0.00 0.00 0.00 46 1013.7
20260903220616 37 189 1.6 4.8 0.00 0.00 0.00 45 1013.7
20260903220017 37 193 1.6 4.8 0.00 0.00 0.00 45 1013.7
20260903215517 37 197 1.6 6.4 0.00 0.00 0.00 45 1013.7
20260903215017 37 205 1.6 4.8 0.00 0.00 0.00 46 1013.7
20260903214617 37 214 1.6 4.8 0.00 0.00 0.00 46 1013.7
20260903214038 37 193 3.2 11.3 0.00 0.00 0.00 45 1013.8
20260903213537 37 180 3.2 9.7 0.00 0.00 0.00 43 1013.8
20260903213017 37 214 4.8 11.3 0.00 0.00 0.00 43 1013.9
20260903212517 37 209 1.6 9.7 0.00 0.00 0.00 44 1013.9
20260903212017 37 190 3.2 8.0 0.00 0.00 0.00 44 1014.0
20260903211538 37 183 3.2 8.0 0.00 0.00 0.00 44 1014.0
20260903211016 37 175 1.6 4.8 0.00 0.00 0.00 44 1014.1
20260903210516 37 189 1.6 6.4 0.00 0.00 0.00 45 1014.1
20260903210016 37 186 4.8 12.9 0.00 0.00 0.00 44 1014.1
20260903205536 37 207 3.2 8.0 0.00 0.00 0.00 45 1014.2
20260903205016 37 278 0.0 1.6 0.00 0.00 0.00 45 1014.2
20260903204516 36 205 1.6 6.4 0.00 0.00 0.00 45 1014.2
20260903204016 37 192 1.6 8.0 0.00 0.00 0.00 45 1014.3
20260903203516 37 193 0.0 4.8 0.00 0.00 0.00 43 1014.3
20260903203017 37 241 0.0 3.2 0.00 0.00 0.00 44 1014.4
20260903202515 37 340 1.6 4.8 0.00 0.00 0.00 44 1014.5
20260903202036 37 202 3.2 9.7 0.00 0.00 0.00 44 1014.5
20260903201536 36 197 1.6 6.4 0.00 0.00 0.00 45 1014.6
20260903201056 36 212 3.2 8.0 0.00 0.00 0.00 45 1014.6
20260903200516 36 227 3.2 9.7 0.00 0.00 0.00 47 1014.6
20260903200016 36 214 3.2 8.0 0.00 0.00 0.00 47 1014.7
20260903195516 35 210 3.2 9.7 0.00 0.00 0.00 50 1014.8
20260903195016 35 298 1.6 4.8 0.00 0.00 0.00 49 1014.9
20260903194536 36 304 3.2 6.4 0.00 0.00 0.00 47 1015.0
20260903194016 36 281 1.6 3.2 0.00 0.00 0.00 45 1015.0
20260903193516 36 244 0.0 1.6 0.00 0.00 0.00 45 1015.1
20260903193016 36 309 1.6 4.8 0.00 0.00 0.00 45 1015.1
20260903192516 36 224 1.6 3.2 0.00 0.00 0.00 44 1015.1
20260903192017 37 249 0.0 1.6 0.00 0.00 0.00 43 1015.1
20260903191516 37 240 0.0 3.2 0.00 0.00 0.00 44 1015.2
20260903191037 37 205 3.2 9.7 0.00 0.00 0.00 43 1015.2
20260903190517 37 242 3.2 6.4 0.00 0.00 0.00 44 1015.2
20260903190037 37 335 3.2 4.8 0.00 0.00 0.00 44 1015.2
20260903185517 37 282 3.2 6.4 0.00 0.00 0.00 43 1015.3
20260903185017 37 269 3.2 8.0 0.00 0.00 0.00 43 1015.4
20260903184517 36 241 3.2 8.0 0.00 0.00 0.00 44 1015.4
20260903184017 36 219 3.2 11.3 0.00 0.00 0.00 45 1015.4
20260903183517 36 216 3.2 8.0 0.00 0.00 0.00 46 1015.5
20260903183017 36 202 3.2 6.4 0.00 0.00 0.00 46 1015.5
20260903182557 36 221 1.6 4.8 0.00 0.00 0.00 45 1015.6
20260903182017 36 217 3.2 6.4 0.00 0.00 0.00 45 1015.6
20260903181517 36 232 3.2 6.4 0.00 0.00 0.00 45 1015.7
20260903181017 36 277 4.8 11.3 0.00 0.00 0.00 46 1015.7
20260903180518 36 287 6.4 11.3 0.00 0.00 0.00 45 1015.8
20260903180018 37 249 3.2 8.0 0.00 0.00 0.00 44 1015.8
20260903175558 37 272 3.2 9.7 0.00 0.00 0.00 44 1015.8
20260903175038 37 260 1.6 4.8 0.00 0.00 0.00 44 1015.9
20260903174518 37 16 3.2 8.0 0.00 0.00 0.00 44 1015.9
20260903174018 37 277 3.2 6.4 0.00 0.00 0.00 44 1016.0
20260903173518 36 240 3.2 9.7 0.00 0.00 0.00 44 1016.0
20260903173038 36 231 1.6 6.4 0.00 0.00 0.00 45 1016.0
20260903172518 36 269 1.6 4.8 0.00 0.00 0.00 45 1016.1
20260903172015 35 281 1.6 6.4 0.00 0.00 0.00 47 1016.2
20260903171515 35 304 1.6 8.0 0.00 0.00 0.00 46 1016.3
20260903171016 35 300 6.4 11.3 0.00 0.00 0.00 46 1016.2
20260903170556 36 274 8.0 14.5 0.00 0.00 0.00 45 1016.3
20260903170016 36 303 4.8 11.3 0.00 0.00 0.00 45 1016.3
20260903165516 36 309 4.8 11.3 0.00 0.00 0.00 46 1016.4
20260903165016 36 294 3.2 9.7 0.00 0.00 0.00 44 1016.4
20260903164516 36 250 1.6 4.8 0.00 0.00 0.00 45 1016.4
20260903164016 36 285 3.2 6.4 0.00 0.00 0.00 46 1016.5
20260903163516 36 278 4.8 9.7 0.00 0.00 0.00 47 1016.6
20260903163036 36 285 3.2 8.0 0.00 0.00 0.00 46 1016.6
20260903162516 36 250 1.6 4.8 0.00 0.00 0.00 47 1016.6
20260903162016 35 251 3.2 4.8 0.00 0.00 0.00 47 1016.7
20260903161516 35 300 1.6 4.8 0.00 0.00 0.00 49 1016.7
20260903161016 35 303 3.2 6.4 0.00 0.00 0.00 50 1016.7
20260903160517 35 301 4.8 12.9 0.00 0.00 0.00 50 1016.7
20260903160017 35 300 6.4 12.9 0.00 0.00 0.00 50 1016.7
20260903155517 35 284 3.2 6.4 0.00 0.00 0.00 50 1016.7
20260903155016 35 295 1.6 4.8 0.00 0.00 0.00 50 1016.7
20260903154517 34 222 1.6 6.4 0.00 0.00 0.00 51 1016.7
20260903154017 34 271 3.2 11.3 0.00 0.00 0.00 52 1016.7
20260903153517 34 297 3.2 8.0 0.00 0.00 0.00 53 1016.8
20260903153017 34 280 3.2 4.8 0.00 0.00 0.00 53 1016.8
20260903152517 33 272 3.2 8.0 0.00 0.00 0.00 56 1016.9
20260903152037 33 293 3.2 6.4 0.00 0.00 0.00 59 1016.9
20260903151538 33 273 3.2 4.8 0.00 0.00 0.00 60 1016.9
20260903151057 33 225 1.6 8.0 0.00 0.00 0.00 60 1017.0
20260903150517 32 267 3.2 11.3 0.00 0.00 0.00 61 1016.9
20260903150017 32 230 3.2 6.4 0.00 0.00 0.00 62 1016.9
20260903145518 32 203 3.2 8.0 0.00 0.00 0.00 63 1016.9
20260903145018 32 316 1.6 1.6 0.00 0.00 0.00 64 1016.8
20260903144538 31 316 1.6 1.6 0.00 0.00 0.00 65 1016.8
20260903144038 31 316 1.6 1.6 0.00 0.00 0.00 66 1016.8
20260903143538 31 315 1.6 1.6 0.00 0.00 0.00 68 1016.8
20260903143038 30 316 0.0 1.6 0.00 0.00 0.00 69 1016.9
20260903142518 30 316 0.0 1.6 0.00 0.00 0.00 70 1017.0
20260903142015 30 316 0.0 1.6 0.00 0.00 0.00 71 1016.9
20260903141515 29 316 0.0 1.6 0.00 0.00 0.00 73 1017.0
20260903141015 29 316 0.0 1.6 0.00 0.00 0.00 74 1017.1
20260903140515 28 316 1.6 1.6 0.00 0.00 0.00 74 1017.1
20260903140016 28 315 0.0 1.6 0.00 0.00 0.00 76 1017.1
20260903135516 28 316 1.6 1.6 0.00 0.00 0.00 77 1017.1
20260903135016 28 316 1.6 3.2 0.00 0.00 0.00 77 1017.1
20260903134516 28 313 1.6 4.8 0.00 0.00 0.00 78 1017.1
20260903134016 27 308 1.6 4.8 0.00 0.00 0.00 80 1017.1
20260903133516 27 306 1.6 4.8 0.00 0.00 0.00 81 1017.1
20260903133016 27 304 3.2 6.4 0.00 0.00 0.00 83 1017.1
20260903132516 26 298 3.2 8.0 0.00 0.00 0.00 84 1017.2
20260903132016 26 266 4.8 8.0 0.00 0.00 0.00 84 1017.2